Weather in Bahchisaraj

Russia / Republic of Crimea     44°45′17″N   33°51′07″E
temp.,
°C
wind,
m/s
gust,
m/s
humid.,
%
clouds,
%
prec.,
mm/h
press.,
hPa
HPBL,
m
3 march, wed
wed300:00+3wsw477988 0.0 1025405
03:00+4wsw5108788 0.0 1024638
06:00+3n698998 0.1 1023482
09:00+3n697199 0.1 10261120
12:00+6n585860 0.0 10271149
15:00+8nnw665030 0.0 10281479
18:00+6nw46590 0.0 1028560
21:00+3nnw22720 0.0 102927
4 march, thu
thu400:00+2se127622 0.0 102922
03:00+2se127650 0.0 102822
06:00+1se22719 0.0 102722
09:00+4s23665 0.0 1026149
12:00+7wsw55530 0.0 1024908
15:00+8sw67550 0.0 1023820
18:00+5sw58650 0.0 1021637
21:00+3s48760 0.0 1020259
5 march, fri
fri500:00+2s49800 0.0 1019246
03:00+2s49810 0.0 1018213
06:00+2s36800 0.0 1017139
09:00+5s49670 0.0 1016308
12:00+11ssw712480 0.0 1015707
15:00+11ssw812570 0.0 1014674
18:00+8ssw711686 0.0 1013487
21:00+6s5108812 0.0 1014325
6 march, sat
sat600:00+5s379025 0.0 1014152
03:00+6s338334 0.0 101463
06:00+6sse238356 0.0 101527
09:00+6n348578 0.0 1016185
12:00+6nne6881100 0.0 1017390
15:00+3nne6894100 0.3 1018333
18:00+4nne5866100 0.4 10201114
21:00+2nne3858100 0.4 1023804
7 march, sun
sun700:000ne235997 0.0 102584
03:00−1nne256248 0.0 1027147
06:00−2ne23720 0.0 1027109
09:000ese12450 0.0 1028358
12:00+3w35360 0.0 10281650
15:00+4w454341 0.0 10261658
18:00+3w355178 0.0 10241266
21:00+1ssw226180 0.0 102334